Black River Falls, WI

10:14 PM CDT on June 26, 2017 (GMT -0500)
Black River Falls Area

Weather History for KBCK - July, 2013

Change the Weather History Date:

Tuesday, July 16, 2013

  Actual Average (KCMY) Record (KCMY)
Temperature  
Mean Temperature 80 °F -  
Max Temperature 94 °F 85 °F 97 °F (1964)
Min Temperature 65 °F 57 °F 44 °F (2014)
Cooling Degree Days 14    
Growing Degree Days 30 (Base 50)    
Moisture  
Dew Point 70 °F    
Average Humidity 78    
Maximum Humidity 100    
Minimum Humidity 38    
Precipitation  
Precipitation 0.09 in - - ()
Sea Level Pressure  
Sea Level Pressure 30.23 in    
Wind  
Wind Speed 3 mph (WSW)    
Max Wind Speed 15 mph    
Max Gust Speed 30 mph    
Visibility 8 miles    
Events Rain    
Averages and records for this station are not official NWS values.
T = Trace of Precipitation, MM = Missing Value Source: NWS Daily Summary

Daily Weather History Graph

Daily Weather History Graph

Search for Another Location

Airport or City:

Trip Planner

Search our weather history database for the weather conditions in past years. The results will help you decide how hot, cold, wet, or windy it might be!

Date:

Astronomy

Jul. 16, 2013 Rise Set
Actual Time 5:34 AM CDT 8:43 PM CDT
Civil Twilight 4:59 AM CDT 9:18 PM CDT
Nautical Twilight 4:14 AM CDT 10:03 PM CDT
Astronomical Twilight 3:19 AM CDT 10:58 PM CDT
Moon 2:20 PM CDT (7/16) 12:11 AM CDT (7/16)
Length of Visible Light 16h 18m
Length of Day
15h 08m
First Quarter, 56% of the Moon is Illuminated
Jul 16
First Quarter
Jul 22
Full
Jul 29
Last Quarter
Aug 6
New
Aug 14
First Quarter

Hourly Weather History & Observations

Time (CDT) Temp. Heat Index Dew Point Humidity Pressure Visibility Wind Dir Wind Speed Gust Speed Precip Events Conditions
12:15 AM 70.7 °F - 70.5 °F 99% 30.22 in 7.0 mi SE 3.5 mph - N/A   Clear
12:35 AM 72.9 °F - 71.8 °F 96% 30.22 in 10.0 mi Calm Calm - N/A   Clear
12:55 AM 73.0 °F - 72.0 °F 96% 30.23 in 10.0 mi Calm Calm - N/A   Scattered Clouds
1:20 AM 71.6 °F - 69.8 °F 94% 30.23 in 10.0 mi Calm Calm - N/A   Scattered Clouds
1:35 AM 70.0 °F - 69.8 °F 99% 30.23 in 10.0 mi Calm Calm - N/A   Scattered Clouds
1:55 AM 69.6 °F - 69.6 °F 100% 30.23 in 7.0 mi Calm Calm - N/A   Clear
2:15 AM 70.2 °F - 70.2 °F 100% 30.23 in 5.0 mi Calm Calm - N/A   Clear
2:35 AM 68.7 °F - 68.5 °F 99% 30.23 in 7.0 mi Calm Calm - N/A   Scattered Clouds
2:55 AM 68.9 °F - 68.9 °F 100% 30.23 in 5.0 mi Calm Calm - N/A   Clear
3:15 AM 68.9 °F - 68.9 °F 100% 30.23 in 4.0 mi Calm Calm - N/A   Clear
3:35 AM 68.2 °F - 68.2 °F 100% 30.23 in 4.0 mi Calm Calm - N/A   Clear
3:55 AM 67.3 °F - 67.3 °F 100% 30.23 in 3.0 mi Calm Calm - N/A   Clear
4:15 AM 67.1 °F - 67.1 °F 100% 30.23 in 4.0 mi Calm Calm - N/A   Clear
4:35 AM 67.5 °F - 67.5 °F 100% 30.23 in 5.0 mi Calm Calm - N/A   Clear
4:55 AM 66.4 °F - 66.4 °F 100% 30.24 in 5.0 mi Calm Calm - N/A   Clear
5:15 AM 66.4 °F - 66.4 °F 100% 30.24 in 5.0 mi Calm Calm - N/A   Clear
5:35 AM 66.4 °F - 66.4 °F 100% 30.24 in 5.0 mi Calm Calm - N/A   Clear
5:55 AM 65.7 °F - 65.7 °F 100% 30.24 in 4.0 mi Calm Calm - N/A   Clear
6:15 AM 66.2 °F - 66.2 °F 100% 30.24 in 7.0 mi Calm Calm - N/A   Clear
6:35 AM 68.5 °F - 68.5 °F 100% 30.24 in 7.0 mi Calm Calm - N/A   Clear
6:55 AM 71.6 °F - 70.9 °F 98% 30.24 in 7.0 mi Calm Calm - N/A   Clear
7:15 AM 74.3 °F - 72.9 °F 95% 30.25 in 10.0 mi Calm Calm - N/A   Clear
7:35 AM 76.3 °F - 73.8 °F 92% 30.25 in 10.0 mi Calm Calm - N/A   Clear
7:55 AM 78.3 °F - 74.3 °F 88% 30.25 in 10.0 mi SSW 5.8 mph - N/A   Clear
8:15 AM 79.9 °F - 72.0 °F 77% 30.26 in 10.0 mi SW 5.8 mph - N/A   Clear
8:35 AM 80.8 °F 84.9 °F 72.0 °F 74% 30.25 in 10.0 mi SW 5.8 mph - N/A   Clear
8:55 AM 82.6 °F 87.6 °F 72.0 °F 70% 30.26 in 10.0 mi SSW 5.8 mph - N/A   Clear
9:15 AM 83.8 °F 89.8 °F 72.5 °F 69% 30.26 in 10.0 mi WSW 5.8 mph - N/A   Clear
9:35 AM 84.9 °F 90.7 °F 71.8 °F 65% 30.26 in 10.0 mi WSW 8.1 mph - N/A   Clear
9:55 AM 86.2 °F 91.4 °F 70.9 °F 60% 30.26 in 10.0 mi WSW 5.8 mph - N/A   Scattered Clouds
10:15 AM 87.3 °F 92.4 °F 70.3 °F 57% 30.26 in 10.0 mi WSW 11.5 mph 16.1 mph N/A   Scattered Clouds
10:35 AM 87.6 °F 91.9 °F 69.1 °F 54% 30.26 in 10.0 mi West 9.2 mph 19.6 mph N/A   Clear
10:55 AM 89.1 °F 93.7 °F 69.3 °F 52% 30.25 in 10.0 mi West 8.1 mph - N/A   Scattered Clouds
11:15 AM 89.4 °F 93.1 °F 68.2 °F 49% 30.25 in 10.0 mi WSW 10.4 mph - N/A   Scattered Clouds
11:35 AM 89.4 °F 93.1 °F 68.2 °F 49% 30.25 in 10.0 mi West 9.2 mph - N/A   Scattered Clouds
11:55 AM 90.5 °F 95.1 °F 68.9 °F 49% 30.24 in 10.0 mi West 8.1 mph - N/A   Mostly Cloudy
12:15 PM 91.9 °F 95.4 °F 67.3 °F 44% 30.25 in 10.0 mi SW 8.1 mph - N/A   Mostly Cloudy
12:35 PM 90.0 °F 93.2 °F 67.5 °F 47% 30.24 in 10.0 mi SSW 5.8 mph - N/A   Mostly Cloudy
12:55 PM 93.4 °F 96.1 °F 66.0 °F 40% 30.24 in 10.0 mi WSW 6.9 mph - N/A   Mostly Cloudy
1:15 PM 92.5 °F 95.9 °F 66.9 °F 43% 30.24 in 10.0 mi WSW 8.1 mph - N/A   Mostly Cloudy
1:35 PM 94.5 °F 97.0 °F 64.9 °F 38% 30.23 in 10.0 mi West 10.4 mph 16.1 mph N/A   Mostly Cloudy
1:55 PM 91.4 °F 94.0 °F 66.2 °F 43% 30.23 in 10.0 mi West 8.1 mph 16.1 mph N/A   Mostly Cloudy
2:15 PM 88.7 °F 92.2 °F 67.8 °F 50% 30.23 in 10.0 mi NW 11.5 mph - N/A   Mostly Cloudy
2:35 PM 91.0 °F 92.6 °F 64.0 °F 41% 30.23 in 10.0 mi WNW 5.8 mph - N/A   Scattered Clouds
2:55 PM 93.2 °F 97.7 °F 68.4 °F 44% 30.22 in 10.0 mi WNW 3.5 mph - N/A   Clear
3:55 PM 79.5 °F - 71.4 °F 76% 30.23 in 4.0 mi WNW 15.0 mph 29.9 mph 0.07 in Rain Heavy Rain
4:15 PM 81.1 °F 86.8 °F 74.3 °F 80% 30.23 in 10.0 mi NNW 3.5 mph - 0.01 in   Scattered Clouds
4:35 PM 86.7 °F 92.9 °F 71.8 °F 61% 30.22 in 10.0 mi Calm Calm - 0.01 in   Scattered Clouds
4:55 PM 88.9 °F 95.1 °F 71.2 °F 56% 30.21 in 10.0 mi West 4.6 mph - 0.01 in   Scattered Clouds
5:15 PM 86.2 °F 92.6 °F 72.3 °F 63% 30.21 in 10.0 mi West 3.5 mph - N/A   Scattered Clouds
5:35 PM 83.8 °F 91.1 °F 74.3 °F 73% 30.22 in 10.0 mi West 5.8 mph - 0.01 in Rain Light Rain
5:55 PM 83.1 °F 90.4 °F 74.8 °F 76% 30.21 in 10.0 mi Calm Calm - 0.01 in   Mostly Cloudy
6:15 PM 84.4 °F 91.7 °F 73.9 °F 71% 30.21 in 10.0 mi SW 5.8 mph - N/A   Mostly Cloudy
6:35 PM 87.1 °F 93.6 °F 72.0 °F 61% 30.21 in 10.0 mi SW 11.5 mph - N/A   Overcast
6:55 PM 83.3 °F 87.6 °F 70.5 °F 65% 30.21 in 10.0 mi South 5.8 mph - N/A   Scattered Clouds
7:15 PM 83.8 °F 88.6 °F 71.1 °F 65% 30.21 in 10.0 mi SSE 3.5 mph - N/A   Clear
7:35 PM 82.9 °F 88.0 °F 71.8 °F 69% 30.21 in 10.0 mi SSE 3.5 mph - N/A   Clear
7:55 PM 82.4 °F 87.4 °F 72.0 °F 71% 30.21 in 10.0 mi South 3.5 mph - N/A   Clear
8:15 PM 82.4 °F 87.4 °F 72.0 °F 71% 30.21 in 10.0 mi Calm Calm - N/A   Clear
8:35 PM 80.6 °F 84.7 °F 72.1 °F 75% 30.21 in 10.0 mi Calm Calm - N/A   Clear
8:55 PM 78.8 °F - 73.6 °F 84% 30.21 in 10.0 mi Calm Calm - N/A   Clear
9:15 PM 77.9 °F - 76.1 °F 94% 30.22 in 10.0 mi Calm Calm - N/A   Clear
9:35 PM 76.1 °F - 75.7 °F 99% 30.22 in 10.0 mi Calm Calm - N/A   Clear
9:55 PM 74.7 °F - 74.3 °F 99% 30.23 in 10.0 mi Calm Calm - N/A   Clear
10:15 PM 74.7 °F - 74.7 °F 100% 30.23 in 10.0 mi Calm Calm - N/A   Clear
10:35 PM 75.6 °F - 75.6 °F 100% 30.24 in 7.0 mi Calm Calm - N/A   Clear
10:55 PM 74.5 °F - 74.5 °F 100% 30.24 in 7.0 mi Calm Calm - N/A   Clear
11:15 PM 73.4 °F - 73.4 °F 100% 30.25 in 4.0 mi Calm Calm - N/A   Clear
11:35 PM 72.0 °F - 72.0 °F 100% 30.25 in 7.0 mi Calm Calm - N/A   Clear
11:55 PM 72.7 °F - 72.7 °F 100% 30.25 in 4.0 mi South 3.5 mph - N/A   Clear